Location: Praha
(50.0830°N, 14.4670°E)
Time: 14:01:37
(UTC+02:00)

ISS - Pass Details

Date: 24 September 2021
Orbit: 419 x 423 km, 51.6° (Epoch: 21 September)

Event Time Altitude Azimuth Distance (km) Brightness Sun altitude
Rises 21:00:11 0° 277° (W) 2,367 1.4 -20.3°
Reaches altitude 10° 21:02:17 10° 280° (W) 1,503 0.1 -20.6°
Enters shadow 21:05:32 65° 348° (NNW) 467 -3.5 -21.0°
